Location: Unspecified
(48.2080°N, 16.3740°E)
Time: 17:25:37
(UTC+00:00)

Daily predictions for brighter satellites

Satellite Brightness Start Highest point End
(mag) Time Altitude Azimuth Time Altitude Azimuth Time Altitude Azimuth
Gbstr 26 Del rocket 4.2 17:02:02 10° W 17:07:39 67° N 17:14:36 10° ENE
USA 281 3.2 17:03:33 10° SSE 17:10:07 81° ENE 17:16:43 10° NNW
Cosmos 2237 4.2 17:06:15 10° NNW 17:12:00 79° ENE 17:17:41 10° SSE
Cosmos 1076 Rocket 3.8 17:08:08 10° SSE 17:12:08 42° E 17:16:09 10° NNE
Cosmos 2208 Rocket 4.1 17:09:04 10° NNW 17:14:26 68° ENE 17:19:49 10° SSE
Meteor PRIRODA 3.5 17:12:32 10° SSE 17:15:52 55° ENE 17:19:14 10° N
NOSS 3-3 (C) 3.9 17:10:38 10° SSW 17:15:56 58° ESE 17:22:08 10° NE
ADEOS 3.6 17:11:06 10° SSE 17:16:14 64° ENE 17:21:25 10° N
IRIDIUM 106 4.4 17:11:24 10° SSE 17:16:31 59° E 17:21:39 10° N
Cosmos 1570 Rocket 4.1 17:11:46 10° NNW 17:17:04 89° ENE 17:22:18 10° SSE
Cosmos 1842 Rocket 3.5 17:16:54 10° N 17:21:13 61° ENE 17:25:31 10° SSE
ADEOS Rocket 3.4 17:14:17 10° SE 17:21:24 57° ENE 17:27:53 10° N
BREEZE-M DEB (TANK) 3.4 17:13:29 10° W 17:24:50 80° N 17:28:10 11° E
COSMOS 2406 4.1 17:19:22 10° SW 17:24:55 53° WNW 17:30:32 10° NNE
CZ-4 R/B 2.2 17:25:11 10° SE 17:28:44 31° ENE 17:32:20 10° N
COSMOS 2428 4.2 17:25:21 10° N 17:29:30 20° NE 17:33:08 12° E
SKYMED 2 4.1 17:27:02 10° N 17:31:20 63° WNW 17:35:38 10° SSW
Cosmos 2151 2.9 17:27:54 10° S 17:32:03 89° W 17:36:14 10° N
SPOT 1/Viking Rocket 4.3 17:28:08 10° SE 17:32:37 32° ENE 17:37:09 10° N
Cosmos 1486 Rocket 4.3 17:27:36 10° S 17:32:40 47° ESE 17:37:45 10° NNE
Cosmos 1151 Rocket 4.3 17:29:38 10° NNE 17:32:54 21° ENE 17:36:02 10° ESE
SJ-6B 3.4 17:29:55 10° SE 17:33:09 31° ENE 17:36:27 10° N
NOSS 3-3 (A) 3.8 17:28:08 10° SSW 17:33:33 77° SE 17:39:58 10° NE
Resurs 1-3 4.1 17:30:30 10° SE 17:34:29 37° ENE 17:38:30 10° N
PAYLOAD B 4.4 17:30:13 10° SE 17:35:29 48° ENE 17:40:45 10° N
Lacrosse 5 3.0 17:31:20 10° NW 17:35:53 31° N 17:40:02 12° ENE
Cosmos 2237 Rocket 4.2 17:35:56 10° N 17:38:21 13° NNE 17:40:47 10° NE
Cosmos 2026 Rocket 4.0 17:33:06 10° N 17:39:14 61° ENE 17:45:26 10° SSE
Cosmos 2219 Rocket 2.8 17:36:29 10° NNW 17:41:39 36° NE 17:46:05 13° ESE
BlueWalker 3 1.9 17:38:09 10° WNW 17:41:57 73° NNE 17:44:47 17° ESE
Meteor 1-10 Rocket 4.3 17:38:34 10° N 17:44:27 78° ENE 17:50:22 10° SSE
NOSS 3-4 (A) 3.9 17:37:59 10° NW 17:44:41 62° NE 17:52:18 10° SE
NOSS 3-4 (C) 3.9 17:38:05 10° NW 17:44:46 62° NE 17:52:21 11° ESE
Cosmos 2333 Rocket 2.3 17:39:43 10° NNW 17:45:20 59° ENE 17:50:54 10° SE
Cosmos 1607 4.4 17:39:30 10° S 17:45:26 42° ESE 17:51:29 10° NE
NOSS 8 (A) 4.4 17:43:02 10° SSW 17:47:09 69° SE 17:50:04 12° NE
SL-08 R/B 3.4 17:46:16 10° NNE 17:51:00 81° WNW 17:55:38 10° SSW
Cosmos 371 Rocket 4.1 17:47:07 10° SSE 17:51:13 28° E 17:55:19 10° NE
Cosmos 972 Rocket 4.1 17:47:44 10° NNW 17:53:45 82° ENE 17:59:04 10° SSE
Cosmos 2034 Rocket 4.2 17:48:28 10° SSW 17:54:46 80° W 18:01:11 10° N
USA 215 3.3 17:52:05 10° NE 17:58:39 89° NNW 18:05:14 10° WSW
Cosmos 1602 4.0 17:55:10 10° SSW 17:58:46 65° W 18:02:24 10° N
SL-27 R/B 4.3 17:56:58 10° SSE 17:57:26 13° SSE 17:57:26 13° SSE
SL-24 DEB 4.4 17:55:16 10° SSE 17:59:38 48° E 18:04:00 10° N
Cosmos 1354 Rocket 4.4 17:55:24 10° S 18:00:11 38° ESE 18:05:01 10° NE
USA 186 2.5 18:00:43 26° ESE 18:01:55 35° ENE 18:05:02 10° N
SL-16 R/B 3.3 17:59:25 10° NW 18:04:51 47° WSW 18:10:14 10° S
Okean O Rocket 2.1 18:03:59 21° ESE 18:06:23 38° ENE 18:10:26 10° N
BREEZE-M DEB (TANK) 1.8 18:06:26 10° WNW 18:09:32 89° SSW 18:10:07 47° ESE
Okean-O 3.8 18:11:13 23° ENE 18:11:23 23° ENE 18:14:53 10° N
CZ-4B R/B 3.1 18:06:03 10° SSE 18:11:27 69° ENE 18:17:00 10° N
Cosmos 1818 3.9 18:07:05 10° S 18:12:12 44° ESE 18:16:21 15° NE
MOS 1-B 4.3 18:07:18 10° SSE 18:13:00 63° ENE 18:18:45 10° N
Landsat 7 4.4 18:08:22 10° S 18:13:01 59° W 18:17:41 10° NNW
CSL-04 Debris 4.2 18:10:02 12° SE 18:14:57 54° ENE 18:20:12 10° N
Meteor 1-27 Rocket 3.8 18:09:37 10° N 18:15:35 87° E 18:21:25 10° S
Cosmos 1092 Rocket 4.2 18:10:12 10° NNW 18:16:22 75° W 18:22:28 10° S
CZ-4B R/B 4.1 18:13:18 10° S 18:17:27 47° W 18:21:41 10° NNW
Cosmos 2322 Rocket 2.9 18:13:28 10° NW 18:18:58 56° WSW 18:24:25 10° S
Meteor 1-19 Rocket 4.2 18:13:26 10° N 18:19:09 85° E 18:25:02 10° SSE
Cosmos 2266 Rocket 4.4 18:14:05 10° N 18:19:50 38° ENE 18:22:21 27° ESE
Cosmos 304 Rocket 4.1 18:16:11 10° S 18:20:37 40° ESE 18:25:07 10° NE
Meteor 2-4 Rocket 3.9 18:16:48 10° N 18:21:55 43° ENE 18:24:02 29° ESE
Cosmos 2322 4.0 18:19:18 10° NNW 18:24:51 47° NE 18:27:03 32° ESE
Feng Yun 1-1 Rocket 4.1 18:20:06 10° SSE 18:25:36 74° ENE 18:31:02 10° NNW
Cosmos 2333 4.1 18:21:19 10° NNW 18:26:57 87° WSW 18:31:28 16° SSE
Terra 4.0 18:28:18 11° NE 18:28:18 11° NE 18:28:50 10° NNE
Tiangong -0.4 18:24:46 10° SW 18:26:54 22° S 18:26:54 22° S
Resurs 01 Rocket 1.7 18:26:10 35° SE 18:27:39 52° ENE 18:31:56 10° N
SJ 16-02 4.1 18:24:30 10° W 18:27:39 19° NW 18:30:49 10° N
Cosmos 1503 Rocket 3.9 18:23:16 10° SSW 18:28:25 84° ESE 18:33:37 10° NNE
Okean 1 3.4 18:25:55 10° NNW 18:29:51 74° W 18:33:41 10° S
USA 267 3.7 18:28:47 16° SE 18:34:03 59° SW 18:40:32 10° WNW
ATLAS CENTAUR R/B 1.6 18:32:06 10° NW 18:36:35 55° NNE 18:36:35 55° NNE
Cosmos 1271 Rocket 3.6 18:35:05 10° SSW 18:38:34 45° WNW 18:42:05 10° N
Cosmos 2360 Rocket 3.0 18:33:41 10° NW 18:39:08 51° WSW 18:44:34 10° S
Cosmos 2142 Rocket 4.4 18:34:40 10° S 18:41:02 74° E 18:47:25 10° NNE
Lacrosse 4 Rocket 1.8 18:39:58 10° NW 18:43:55 56° WSW 18:45:19 35° S
CSL-04 Rocket 3.6 18:40:44 19° SSE 18:44:40 85° ENE 18:50:13 10° NNW
ATLAS 2AS CENTAUR R/B 3.9 18:39:38 10° NW 18:45:34 28° NNE 18:48:06 22° NE
BREEZE-M DEB (TANK) 3.1 18:43:52 10° W 18:48:22 77° N 18:48:58 61° ENE
PSLV R/B 3.9 18:49:57 52° SSW 18:50:35 64° WSW 18:54:07 10° NNW
Cosmos 1833 4.3 18:45:50 10° SSW 18:51:37 77° WNW 18:57:26 10° NNE
GEOS 3 Rocket 3.6 18:50:40 49° ESE 18:52:08 74° NE 18:57:28 10° NW
ASTEX 1 3.7 18:47:52 10° N 18:52:45 65° W 18:57:36 10° SSW
Gbstr 26 Del rocket 4.2 18:48:56 10° WNW 18:55:13 72° NNE 18:57:44 43° E
NOSS 0 Rocket 4.2 18:49:29 10° NNW 18:55:27 48° NE 18:56:19 45° ENE
Meteor 2-12 Rocket 4.3 18:50:30 10° N 18:56:36 89° W 19:00:48 21° S
CZ-3B R/B 2.3 18:54:09 10° NW 18:56:48 48° N 18:56:48 48° N
Gblst 52 Del rocket 4.4 18:52:53 10° W 18:58:21 64° N 19:00:03 44° NE
Cosmos 2084 3.4 18:55:09 10° NW 18:58:28 66° WNW 18:58:28 66° WNW
Fengyun 1C 4.5 19:01:02 49° SSE 19:02:33 84° ENE 19:07:56 10° NNW
CZ-4 R/B 3.5 18:59:58 10° SSW 19:03:24 27° W 19:06:53 10° NW
Cosmos 2279 Rocket 4.3 19:01:00 10° SSW 19:07:09 67° WNW 19:13:22 10° N
Cosmos 1151 Rocket 4.2 19:06:34 10° NNW 19:10:34 41° W 19:12:53 22° SSW
COSMOS 2428 2.5 19:08:54 10° NNW 19:14:39 84° ENE 19:15:09 74° SE
Cosmos 1980 4.3 19:11:25 10° NNW 19:16:08 41° NE 19:16:08 41° NE
Meteor 1-18 Rocket 4.2 19:11:22 10° NNW 19:16:57 81° W 19:18:12 56° S
Lacrosse 5 2.1 19:14:35 10° NW 19:19:15 59° N 19:19:15 59° N
Meteor 1-5 Rocket 4.2 19:14:00 10° SSW 19:19:39 80° WNW 19:25:09 10° N
BlueWalker 3 3.9 19:16:48 10° W 19:19:17 24° WSW 19:19:17 24° WSW
Cosmos 2237 Rocket 2.9 19:18:32 10° NNW 19:23:04 41° NNE 19:23:04 41° NNE
Aureole 1 Rocket 4.3 19:16:49 10° S 19:24:47 73° ESE 19:32:15 10° NNE
Cosmos 2219 Rocket 3.1 19:20:25 10° NW 19:25:41 43° WSW 19:27:50 30° SSW
Cosmos 2333 Rocket 4.1 19:24:40 10° NW 19:29:12 25° WSW 19:33:42 10° SSW
Cosmos 1328 Rocket 4.4 19:25:45 10° NNW 19:29:08 47° NW 19:29:08 47° NW
Cosmos 371 Rocket 4.5 19:26:45 10° SW 19:31:22 41° WNW 19:36:00 10° N
USA 215 4.0 19:38:44 32° NE 19:41:22 48° NNW 19:47:34 10° W
SL-16 R/B 3.9 19:37:32 10° N 19:40:34 22° NNE 19:40:34 22° NNE
Okean O Rocket 3.6 19:41:21 21° WSW 19:42:47 25° W 19:46:24 10° NW
SPOT 5 4.3 19:47:35 30° NNW 19:47:35 30° NNW 19:49:59 10° NNW
MOS 1 4.5 19:45:46 67° W 19:45:46 67° W 19:51:22 10° NNW
Okean-O 4.1 19:48:41 36° WNW 19:48:41 36° WNW 19:51:47 10° NNW
MOS 1-B Rocket 4.3 19:56:20 83° S 19:56:37 87° WSW 20:04:38 10° NNW
Cosmos 1655 Rocket 4.3 19:51:53 10° NNW 19:58:01 62° W 19:58:17 61° WSW
Terra 3.9 20:07:00 20° N 20:07:00 20° N 20:08:30 10° N
Resurs 01 Rocket 4.0 20:03:38 18° WSW 20:04:24 18° W 20:07:29 10° NW
ATLAS 2AS CENTAUR R/B 3.5 20:30:47 10° NW 20:35:31 45° NNW 20:35:31 45° NNW
Cosmos 2237 Rocket 4.4 21:02:50 10° NW 21:04:54 21° WNW 21:04:54 21° WNW
